SCOUT A DEB, 2889

Orbit data source: Space-Track

SCOUT A DEB, 2889 is space debris in LEO originally from a launch on Fri, 28 Jan 1966 UTC launched from the Air Force Western Test Range (AFWTR). Debris objects in space refer to the collection of defunct objects orbiting the Earth. Examples of debris include non-operational satellites, rocket bodies, and fragments generated from explosions, collisions, or faulty payload assembly.

Loading next visibility...
Identifier
2889, 1966-005E
Orbit
LEO
Country
Flag of USUS
Related business
Manufacturer
Unknown
Mission
Spacecraft
Bus & Motor
Unknown
Mass
Unknown
Launch date (UTC)
1966-01-28 (60 years ago)
Launch vehicle
Unknown
Launch site
Air Force Western Test Range (AFWTR)
Object type
Payload
Rocket body
Debris
Shape & HBR
Unknown shape, 0.1 m
Radar Cross Section
Small (<0.1 m²)

Expand to show TLE details & history
Last TLE update: 3 days ago

TLE from 3 days ago
0 SCOUT A DEB
1 02889U 66005E   25304.67141337  .00000184  00000-0  41287-3 0  9998
2 02889  89.5456 167.9226 0168096  62.6833   0.1955 13.17971838806290
Epoch: 2025-10-31T16:06Z
TLE epoch observation values (Epoch: 2025-10-31T16:06:50.115Z)
Latitude
62.96787°
Longitude
-113.11267°
Altitude
1,076.086 km
Speed
7.381 km/s
True Right ascension
11h 15m 14s
True Declination
62° 50' 04"
Sunlit
Object was in daylight at epoch
Visualization orbit readout
Latitude
Unknown
Longitude
Unknown
Altitude
Unknown
Speed
Unknown
Apparent Right ascension
Unknown
Apparent Declination
Unknown
Sunlit
N/A
Visualization observer readout
Local Sidereal Time
03:33:38
Azimuth
Unknown
Elevation
Unknown
Doppler factor
Unknown
Orbital elements
Apogee altitude
1,316.783 km
Perigee altitude
1,062.363 km
Semi-major axis
7,567.71 km
Eccentricity
0.01681
Inclination
89.5456°
RAAN
167.9226°
Arg. of periapsis
62.6833°
True anomaly
0.20221°
Mean anomaly
0.1955°
Eccentric anomaly
0.19884°
Mean motion
3.29683 °/min
Orbital period
109.2 mins
BSTAR
0.00041287
Loading maneuver chart data...
Computing Atmospheric mass density...
Loading historical data...
Loading historical data...
Loading historical data...
Loading historical data...
Loading historical data...
Loading historical data...
Loading historical data...

Documentation

Showing up to 5 results
|